Location: Newark
(25.6108°S, 54.5803°W)
Time: 16:59:55
(UTC+00:00)

Courier 1B Rocket - Pass Details

Date: 28 October 2020
Orbit: 920 x 1202 km, 28.2° (Epoch: 22 November)

Event Time Altitude Azimuth Distance (km) Brightness Sun altitude
Rises 11:24:57 0° 271° (W) 3,849 7.6 33.2°
Reaches altitude 10° 11:27:47 10° 269° (W) 2,851 7.0 33.9°
Maximum altitude 11:34:41 72° 184° (S) 1,039 5.8 35.4°
Drops below altitude 10° 11:41:09 10° 100° (E) 2,673 8.6 36.9°
Sets 11:43:43 0° 98° (E) 3,594 8.9 37.5°
